Location: Unspecified
(0.0000°N, 0.0000°E)
Time: 04:09:42
(UTC+00:00)

N. Korean satellite - Visible Passes

Search period start: 27 May 2017 00:00
Search period end: 06 June 2017 00:00
Orbit: 463 x 516 km, 97.2° (Epoch: 26 May)

Date Brightness Start Highest point End Pass type
(mag) Time Alt. Az. Time Alt. Az. Time Alt. Az.
27 May 9.1 19:16:34 10° SSW 19:19:23 21° W 19:22:14 10° NW visible
28 May 7.5 18:53:04 10° S 18:56:37 51° W 19:00:13 10° NNW visible
29 May 6.7 18:30:14 10° SSE 18:33:51 61° E 18:37:30 10° N visible
31 May 9.2 19:18:54 10° SSW 19:21:37 20° W 19:24:22 10° NW visible
01 Jun 7.7 18:55:19 10° S 18:58:51 46° W 19:02:25 10° NNW visible
02 Jun 6.6 18:32:25 10° SSE 18:36:05 69° E 18:39:47 10° N visible
04 Jun 9.4 19:21:13 10° SW 19:23:49 18° W 19:26:26 10° WNW visible
05 Jun 7.9 18:57:31 10° S 19:01:02 42° WSW 19:04:36 10° NNW visible
